ROMMA est une association bénévole à but non lucratif. Votre soutien est indispensable : ADHERER à ROMMA ou FAIRE un DON

Pinsot - (38, Isère)

Vallée du Haut Bréda (750 m)   Longitude: 06° 06' E   Latitude: 45° 21' N Station partenaire n°101
 

Détail journalier du     <<     >>

Température Precipitation Humidité Pression Vent Dir Rafale Dir. rafale Ensol.
Heure (°C) (mm) (%) (hPa) (km/h) (km/h) (min)
01:00 4.908610222SSO13SSO0
02:00 4.708710221SSO8SSO0
03:00 5.608310222SSO13S0
04:00 4.908510221SSO6SSO0
05:00 4.9086102108SSO0
06:00 4.708810211SSO8SSO0
07:00 4.608910221SSO10SSO0
08:00 4.608710221SSO6SSO0
09:00 5.308410222SSO10SSO0
10:00 5.108710231SSO8SO0
11:00 6.308110231SSO6SSO0
12:00 8.0077102202SSO0
13:00 8.9069102108NNE55
14:00 9.806810213ENE15ENE58
15:00 7.407810214E18NNE36
16:00 6.208510221ENE15E6
17:00 5.708110221SSO10SSO0
18:00 4.108710221SSO11SSO0
19:00 3.208810232SSO11S0
20:00 2.808910232SSO10SSO0
21:00 2.409010233SSO13SSO0
22:00 2.209010232SSO10SSO0
23:00 2.608910234SSO11SSO0
minuit 1.909010234SSO11SSO0

Graphique du 07-12-2019

 

Serveur OMMA